Location: Bratislava
(48.1500°N, 17.1170°E)
Time: 10:26:48
(UTC+02:00)

ISS - Pass Details

Date: 26 March 2019
Orbit: 408 x 410 km, 51.6° (Epoch: 21 April)

Event Time Altitude Azimuth Distance (km) Brightness Sun altitude
Rises 20:59:59 0° 280° (W) 2,336 1.0 -26.5°
Reaches altitude 10° 21:02:09 10° 288° (WNW) 1,475 -0.1 -26.8°
Enters shadow 21:03:36 22° 300° (WNW) 942 -1.3 -27.0°
